CW1675 Weather Reports


Display with metric or nautical units.
time (UTC)temp
F
wind
direction
speed
MPH
gust
MPH
rain 1hr
in
rain 24hr
in
rain mn
in
humidity
%
barometer
mb
20260901195907 60 265 0.0 2.0 0.00 0.01 0.01 88 1022.2
20260901194406 60 178 0.0 2.0 0.00 0.01 0.01 89 1022.1
20260901193406 60 161 0.0 0.0 0.00 0.01 0.01 88 1022.1
20260901192906 60 161 0.0 0.0 0.00 0.01 0.01 88 1022.1
20260901192405 60 161 0.0 0.0 0.00 0.01 0.01 87 1022.1
20260901191905 60 161 0.0 1.0 0.00 0.01 0.01 86 1022.1
20260901190906 60 152 0.0 0.0 0.00 0.01 0.01 85 1022.0
20260901185406 61 149 0.0 0.0 0.00 0.01 0.01 82 1021.9
20260901184406 62 149 0.0 1.0 0.00 0.01 0.01 81 1021.9
20260901183906 62 149 0.0 2.0 0.00 0.01 0.01 80 1021.8
20260901183406 63 149 0.0 0.0 0.00 0.01 0.01 80 1021.8
20260901182405 64 150 0.0 2.0 0.00 0.04 0.01 76 1021.8
20260901181905 65 159 0.0 1.0 0.00 0.06 0.01 77 1021.8
20260901181406 65 52 0.0 1.0 0.00 0.06 0.01 76 1021.8
20260901175406 67 41 0.0 0.0 0.00 0.07 0.01 71 1021.7
20260901174905 68 41 0.0 0.0 0.00 0.07 0.01 69 1021.7
20260901173906 69 334 2.0 3.0 0.00 0.08 0.01 67 1021.6
20260901172906 70 306 3.0 2.0 0.00 0.08 0.01 64 1021.6
20260901171406 71 325 2.0 7.0 0.00 0.08 0.01 61 1021.7
20260901170905 71 289 2.0 8.0 0.00 0.08 0.01 60 1021.6
20260901170406 71 268 2.0 5.0 0.00 0.08 0.01 61 1021.6
20260901165406 71 299 3.0 6.0 0.00 0.08 0.01 61 1021.6
20260901164906 71 312 3.0 8.0 0.00 0.08 0.01 60 1021.6
20260901164406 71 310 3.0 5.0 0.00 0.08 0.01 61 1021.6
20260901163405 72 344 2.0 7.0 0.00 0.08 0.01 60 1021.5
20260901161906 72 310 5.0 8.0 0.00 0.08 0.01 59 1021.5
20260901160906 72 314 6.0 8.0 0.00 0.08 0.01 57 1021.5
20260901155907 72 347 4.0 12.0 0.00 0.09 0.01 57 1021.5
20260901154406 71 251 2.0 8.0 0.00 0.09 0.01 62 1021.6
20260901153905 70 298 2.0 6.0 0.00 0.09 0.01 62 1021.6
20260901150405 71 331 5.0 8.0 0.00 0.09 0.01 60 1021.5
20260901144906 71 301 3.0 6.0 0.00 0.09 0.01 58 1021.5
20260901144405 71 245 3.0 12.0 0.00 0.09 0.01 58 1021.5
20260901143405 71 274 5.0 9.0 0.00 0.09 0.01 58 1021.7
20260901140405 71 287 6.0 7.0 0.00 0.09 0.01 62 1021.8
20260901135907 71 248 4.0 12.0 0.00 0.09 0.01 64 1021.8
20260901133906 70 338 3.0 9.0 0.00 0.09 0.01 66 1021.8
20260901132406 69 286 3.0 7.0 0.00 0.09 0.01 66 1021.8
20260901131406 69 295 5.0 8.0 0.00 0.09 0.01 63 1021.8
20260901125906 69 315 3.0 7.0 0.00 0.09 0.01 66 1022.0
20260901122405 69 246 6.0 10.0 0.00 0.09 0.01 65 1022.1
20260901120405 67 263 5.0 10.0 0.00 0.09 0.01 76 1022.1
20260901115405 66 294 3.0 14.0 0.00 0.09 0.01 76 1022.1
20260901114406 65 317 3.0 7.0 0.00 0.09 0.01 80 1022.1
20260901112908 65 305 3.0 5.0 0.00 0.10 0.01 80 1022.1
20260901112405 65 253 3.0 6.0 0.00 0.10 0.01 79 1022.1
20260901111905 65 286 4.0 7.0 0.00 0.10 0.01 79 1022.1
20260901111405 65 348 5.0 6.0 0.00 0.10 0.01 79 1022.1
20260901104405 67 253 7.0 10.0 0.00 0.10 0.01 70 1022.0
20260901103906 68 267 6.0 16.0 0.00 0.10 0.01 71 1022.0
20260901102906 67 255 6.0 9.0 0.00 0.10 0.01 73 1022.0
20260901101405 67 224 6.0 14.0 0.00 0.10 0.01 74 1022.1
20260901100406 66 214 7.0 10.0 0.00 0.10 0.01 77 1022.1
20260901094405 64 249 5.0 12.0 0.00 0.10 0.01 80 1022.1
20260901093906 64 255 6.0 9.0 0.00 0.10 0.01 81 1022.2
20260901092906 64 250 5.0 10.0 0.00 0.10 0.01 83 1022.2
20260901091906 64 232 5.0 7.0 0.00 0.10 0.01 84 1022.2
20260901091407 64 206 5.0 12.0 0.00 0.10 0.01 84 1022.2
20260901085907 63 214 7.0 13.0 0.00 0.10 0.01 83 1022.1
20260901085405 63 217 7.0 12.0 0.00 0.10 0.01 85 1022.1
20260901084905 63 230 6.0 12.0 0.00 0.10 0.01 85 1022.1
20260901082907 62 203 7.0 15.0 0.00 0.10 0.01 86 1022.0
20260901081905 62 230 7.0 14.0 0.01 0.10 0.01 87 1021.8
20260901081406 62 234 7.0 12.0 0.01 0.10 0.01 88 1021.8
20260901080405 62 221 8.0 13.0 0.01 0.10 0.01 88 1021.7
20260901075907 61 211 9.0 16.0 0.01 0.10 0.01 88 1021.7
20260901074905 61 232 9.0 15.0 0.01 0.10 0.01 87 1021.7
20260901073905 62 243 7.0 17.0 0.01 0.10 0.01 87 1021.6
20260901073405 62 248 6.0 17.0 0.01 0.10 0.01 87 1021.6
20260901072905 62 247 7.0 15.0 0.01 0.10 0.01 88 1021.6
20260901070404 62 223 8.0 13.0 0.00 0.09 0.00 90 1021.4
20260901064405 61 215 5.0 16.0 0.00 0.09 0.00 91 1021.4
20260901061905 61 231 6.0 9.0 0.00 0.09 0.00 91 1021.4
20260901061405 61 241 6.0 8.0 0.00 0.09 0.00 91 1021.4
20260901060905 61 252 5.0 10.0 0.00 0.09 0.00 91 1021.1
20260901060406 61 199 5.0 10.0 0.00 0.09 0.00 91 1021.1
20260901055417 61 224 7.0 8.0 0.00 0.09 0.00 90 1021.1
20260901052907 61 215 5.0 13.0 0.00 0.09 0.00 90 1021.0
20260901052405 61 225 5.0 9.0 0.00 0.09 0.00 90 1020.9
20260901051905 61 230 5.0 12.0 0.00 0.09 0.00 90 1020.9
20260901051405 61 227 5.0 10.0 0.00 0.09 0.00 90 1020.9
20260901050905 61 261 5.0 10.0 0.00 0.09 0.00 90 1020.8
20260901050405 61 221 5.0 8.0 0.00 0.09 0.00 90 1020.8
20260901045906 60 213 5.0 6.0 0.00 0.09 0.00 90 1020.8
20260901044905 60 222 6.0 8.0 0.00 0.09 0.00 90 1020.8
20260901044405 60 190 6.0 9.0 0.00 0.09 0.00 90 1020.8
20260901041405 60 194 5.0 9.0 0.00 0.09 0.00 91 1020.4
20260901035907 60 177 5.0 7.0 0.00 0.09 0.00 91 1020.4
20260901035405 60 171 6.0 8.0 0.00 0.09 0.00 91 1020.3
20260901034905 60 174 6.0 8.0 0.00 0.09 0.00 91 1020.3
20260901033905 60 191 5.0 13.0 0.00 0.09 0.00 91 1020.3
20260901032907 60 197 5.0 9.0 0.00 0.09 0.00 90 1020.3
20260901031405 60 222 5.0 9.0 0.00 0.09 0.00 90 1020.3
20260901030905 60 204 3.0 12.0 0.00 0.09 0.00 90 1020.4
20260901025905 60 235 5.0 6.0 0.00 0.09 0.00 90 1020.4
20260901023905 60 216 5.0 10.0 0.00 0.09 0.00 89 1020.4
20260901023404 60 222 5.0 10.0 0.00 0.09 0.00 89 1020.4
20260901021905 60 254 5.0 8.0 0.00 0.09 0.00 89 1020.1
20260901020905 60 214 3.0 8.0 0.00 0.09 0.00 89 1020.1
20260901015404 60 202 5.0 6.0 0.00 0.09 0.00 89 1020.2
20260901014904 60 225 5.0 9.0 0.00 0.09 0.00 89 1020.2
20260901014405 60 208 5.0 12.0 0.00 0.09 0.00 89 1020.2
20260901012905 60 208 3.0 8.0 0.00 0.09 0.00 88 1020.1
20260901011905 60 247 3.0 6.0 0.00 0.09 0.00 88 1020.0
20260901011405 60 216 3.0 6.0 0.00 0.09 0.00 88 1020.0
20260901010905 60 226 3.0 8.0 0.00 0.09 0.00 89 1020.1
20260901010405 60 216 3.0 9.0 0.00 0.09 0.00 89 1020.1
20260901004905 60 256 3.0 6.0 0.00 0.10 0.00 89 1020.0
20260901004405 60 242 3.0 8.0 0.00 0.10 0.00 89 1020.0
20260901003905 60 236 3.0 6.0 0.00 0.11 0.00 88 1019.9
20260901001906 60 275 4.0 6.0 0.00 0.11 0.00 88 1019.9
20260901001411 60 243 5.0 8.0 0.00 0.11 0.00 88 1019.9
20260901000407 60 224 3.0 8.0 0.00 0.11 0.00 87 1020.0
20260831235906 60 262 3.0 8.0 0.00 0.11 0.00 87 1020.0
20260831235405 60 239 3.0 8.0 0.00 0.11 0.00 87 1020.0
20260831233905 61 220 6.0 9.0 0.00 0.11 0.00 87 1020.1
20260831232405 60 234 5.0 10.0 0.00 0.11 0.00 87 1020.0
20260831231904 60 231 5.0 9.0 0.00 0.11 0.00 87 1020.0
20260831230904 61 212 5.0 8.0 0.00 0.11 0.00 87 1020.1
20260831230405 61 205 5.0 9.0 0.00 0.11 0.00 88 1020.1
20260831225906 61 220 5.0 9.0 0.00 0.11 0.00 88 1020.1
20260831225405 61 232 5.0 8.0 0.00 0.11 0.00 88 1020.1
20260831224913 61 198 3.0 8.0 0.00 0.11 0.00 87 1020.1
20260831224406 61 203 3.0 7.0 0.00 0.11 0.00 87 1020.1
20260831223910 61 194 4.0 7.0 0.00 0.11 0.00 87 1020.1
20260831222907 61 212 5.0 8.0 0.00 0.11 0.00 87 1020.1
20260831220405 61 208 0.0 3.0 0.00 0.11 0.00 88 1019.9
20260831213904 61 233 2.0 5.0 0.00 0.11 0.11 89 1019.7
20260831211904 61 259 2.0 3.0 0.00 0.11 0.11 92 1019.6
20260831211405 60 309 2.0 3.0 0.00 0.11 0.11 92 1019.6
20260831210905 60 313 2.0 5.0 0.00 0.11 0.11 93 1019.5
20260831210405 60 279 2.0 6.0 0.00 0.11 0.11 94 1019.5
20260831204405 59 127 0.0 5.0 0.00 0.11 0.11 95 1019.4
20260831203905 59 88 0.0 2.0 0.00 0.11 0.11 95 1019.3
20260831202906 58 90 0.0 1.0 0.00 0.11 0.11 95 1019.3
20260831202405 58 86 0.0 0.0 0.00 0.11 0.11 95 1019.1